Salem, OR

1:35 PM PST on January 23, 2017 (GMT -0800)
McNary

Weather History for KSLE - November, 2010

Change the Weather History Date:

Monday, November 1, 2010

  Actual Average Record
Temperature  
Mean Temperature 62 °F 49 °F  
Max Temperature 67 °F 57 °F 72 °F (1969)
Min Temperature 56 °F 40 °F 14 °F (1935)
Degree Days  
Heating Degree Days 3 16  
Month to date heating degree days 3 16  
Since 1 July heating degree days 469 548  
Cooling Degree Days 0 0  
Month to date cooling degree days 0 0  
Year to date cooling degree days 291 290  
Growing Degree Days 12 (Base 50)    
Moisture  
Dew Point 54 °F    
Average Humidity 76    
Maximum Humidity 93    
Minimum Humidity 58    
Precipitation  
Precipitation 0.16 in 0.16 in 1.41 in (1948)
Month to date precipitation 0.16 0.16  
Year to date precipitation 33.21 26.47  
Snow  
Snow 0.00 in - - ()
Month to date snowfall 0.0  
Snow Depth 0.00 in    
Sea Level Pressure  
Sea Level Pressure 30.20 in    
Wind  
Wind Speed 12 mph (SSW)    
Max Wind Speed 28 mph    
Max Gust Speed 40 mph    
Visibility 9 miles    
Events Rain    
T = Trace of Precipitation, MM = Missing Value Source: NWS Daily Summary

Daily Weather History Graph

Daily Weather History Graph

Search for Another Location

Airport or City:

Trip Planner

Search our weather history database for the weather conditions in past years. The results will help you decide how hot, cold, wet, or windy it might be!

Date:

Astronomy

Nov. 01, 2010 Rise Set
Actual Time 7:50 AM PDT 6:00 PM PDT
Civil Twilight 7:19 AM PDT 6:30 PM PDT
Nautical Twilight 6:45 AM PDT 7:05 PM PDT
Astronomical Twilight 6:11 AM PDT 7:39 PM PDT
Moon 2:20 AM PDT (11/1) 3:21 PM PDT (11/1)
Length of Visible Light 11h 10m
Length of Day
10h 09m
Waning Crescent, 25% of the Moon is Illuminated
Nov 1
Waning Crescent
Nov 5
New
Nov 13
First Quarter
Nov 21
Full
Nov 28
Last Quarter

Hourly Weather History & Observations

Time (PDT) Temp. Dew Point Humidity Pressure Visibility Wind Dir Wind Speed Gust Speed Precip Events Conditions
12:56 AM 57.0 °F 51.1 °F 81% 30.10 in 10.0 mi South 10.4 mph - 0.00 in   Overcast
1:56 AM 57.0 °F 52.0 °F 83% 30.11 in 10.0 mi SSE 5.8 mph - N/A   Overcast
2:56 AM 57.0 °F 52.0 °F 83% 30.10 in 10.0 mi SSE 6.9 mph - N/A   Overcast
4:56 AM 59.0 °F 52.0 °F 78% 30.09 in 10.0 mi South 10.4 mph - N/A   Scattered Clouds
5:56 AM 61.0 °F 52.0 °F 72% 30.10 in 10.0 mi South 16.1 mph - N/A   Overcast
6:56 AM 62.1 °F 51.1 °F 67% 30.08 in 10.0 mi SSE 13.8 mph 23.0 mph N/A   Overcast
7:56 AM 63.0 °F 51.1 °F 65% 30.10 in 10.0 mi South 20.7 mph 31.1 mph N/A   Overcast
8:56 AM 63.0 °F 51.1 °F 65% 30.12 in 10.0 mi South 17.3 mph 25.3 mph N/A   Overcast
9:56 AM 64.0 °F 51.1 °F 63% 30.13 in 10.0 mi South 18.4 mph 25.3 mph N/A   Overcast
10:56 AM 64.9 °F 51.1 °F 61% 30.15 in 10.0 mi South 18.4 mph 27.6 mph N/A   Overcast
11:56 AM 66.0 °F 52.0 °F 60% 30.17 in 10.0 mi South 18.4 mph 24.2 mph N/A   Overcast
12:56 PM 66.9 °F 53.1 °F 61% 30.17 in 10.0 mi South 20.7 mph 27.6 mph N/A   Overcast
1:56 PM 66.9 °F 54.0 °F 63% 30.16 in 10.0 mi South 18.4 mph 29.9 mph N/A   Overcast
2:56 PM 66.9 °F 55.0 °F 66% 30.17 in 10.0 mi South 23.0 mph 32.2 mph N/A   Overcast
3:56 PM 66.0 °F 55.9 °F 70% 30.18 in 10.0 mi South 15.0 mph 28.8 mph 0.00 in Rain Light Rain
4:56 PM 66.0 °F 55.9 °F 70% 30.19 in 10.0 mi SSW 19.6 mph 26.5 mph 0.00 in   Overcast
5:46 PM 62.6 °F 57.2 °F 82% 30.25 in 2.0 mi WSW 5.8 mph 19.6 mph 0.01 in Rain Rain
5:56 PM 62.1 °F 57.9 °F 86% 30.25 in 2.0 mi SW 5.8 mph - 0.03 in Rain Light Rain
6:51 PM 60.8 °F 57.2 °F 88% 30.28 in 4.0 mi West 8.1 mph - 0.02 in Rain Light Rain
6:56 PM 60.1 °F 57.0 °F 90% 30.28 in 2.5 mi WSW 5.8 mph - 0.03 in Rain Light Rain
7:56 PM 59.0 °F 57.0 °F 93% 30.31 in 10.0 mi SSW 3.5 mph - 0.05 in Rain Light Rain
8:56 PM 57.9 °F 55.9 °F 93% 30.32 in 9.0 mi SSW 3.5 mph - 0.01 in Rain Light Rain
9:35 PM 57.2 °F 55.4 °F 94% 30.33 in 6.0 mi SW 6.9 mph - 0.01 in Rain Light Rain
9:56 PM 59.0 °F 55.9 °F 90% 30.34 in 10.0 mi SW 10.4 mph - 0.02 in Rain Light Rain
10:56 PM 59.0 °F 55.9 °F 90% 30.37 in 10.0 mi SW 8.1 mph - 0.02 in Rain Light Rain
11:56 PM 59.0 °F 55.9 °F 90% 30.38 in 10.0 mi Calm Calm - 0.00 in   Overcast